KMM116 LMML-EGKK

Flight info

Callsign KMM116
Flight time N/A
Altitude 36000
Route GZO M622 ADEXI DCT GIANO DCT RONAB DCT POKAV DCT TOBGA DCT DOBIM DCT PIGOS DCT BARSO DCT OKTET DCT GIPNO DCT BULOL DCT IDAVO DCT BAGBI DCT SIZZA DCT LAULY DCT BRY DCT CLM DCT KOPOR DCT KESAX DCT KUNAV
Aircraft A320/M-SDE3FGHIRWY/LB1

Departure

Time 2026-05-04 13:09
Airport Malta International Airport (LMML)

Arrival

Time N/A
Airport London Gatwick Airport (EGKK)
Time Latitude Longitude Altitude Speed Heading
2026-05-04 12:59 35.84859 14.49455 258 ft 0 kts 360°
2026-05-04 13:05 35.84862 14.49450 258 ft 2 kts 309°
2026-05-04 13:05 35.84834 14.49424 258 ft 9 kts 198°
2026-05-04 13:05 35.84765 14.49477 258 ft 11 kts 135°
2026-05-04 13:05 35.84689 14.49566 259 ft 20 kts 146°
2026-05-04 13:06 35.84583 14.49535 259 ft 17 kts 200°
2026-05-04 13:06 35.84486 14.49601 258 ft 17 kts 146°
2026-05-04 13:06 35.84368 14.49657 257 ft 19 kts 163°
2026-05-04 13:06 35.84231 14.49706 256 ft 24 kts 161°
2026-05-04 13:07 35.84073 14.49825 255 ft 30 kts 136°
2026-05-04 13:07 35.83912 14.50022 255 ft 34 kts 135°
2026-05-04 13:07 35.83734 14.50230 254 ft 32 kts 141°
2026-05-04 13:07 35.83674 14.50320 253 ft 6 kts 356°
2026-05-04 13:08 35.83716 14.50269 254 ft 9 kts 314°
2026-05-04 13:08 35.83722 14.50261 254 ft 0 kts 314°
2026-05-04 13:08 35.83731 14.50250 254 ft 10 kts 314°
2026-05-04 13:08 35.83956 14.49967 255 ft 83 kts 314°
2026-05-04 13:09 35.84510 14.49277 259 ft 141 kts 315°
2026-05-04 13:09 35.85304 14.48298 418 ft 173 kts 314°
2026-05-04 13:09 35.86180 14.47203 967 ft 185 kts 309°
2026-05-04 13:09 35.87039 14.45966 1578 ft 193 kts 308°
2026-05-04 13:10 35.87909 14.44678 2166 ft 198 kts 306°
2026-05-04 13:10 35.88802 14.43278 2418 ft 220 kts 305°
2026-05-04 13:10 35.89788 14.41705 2736 ft 244 kts 306°
2026-05-04 13:10 35.90873 14.39985 3206 ft 261 kts 306°
2026-05-04 13:11 35.92010 14.38200 3994 ft 266 kts 306°
2026-05-04 13:11 35.93164 14.36406 4831 ft 269 kts 307°
2026-05-04 13:11 35.94354 14.34600 5639 ft 273 kts 308°
2026-05-04 13:11 35.95568 14.32781 6432 ft 276 kts 308°
2026-05-04 13:12 35.96800 14.30939 7232 ft 279 kts 308°
2026-05-04 13:12 35.98027 14.29102 8007 ft 282 kts 308°
2026-05-04 13:12 35.99298 14.27195 8783 ft 286 kts 308°
2026-05-04 13:12 36.00551 14.25313 9521 ft 289 kts 309°
2026-05-04 13:13 36.01831 14.23386 10277 ft 291 kts 309°
2026-05-04 13:13 36.03162 14.21412 10653 ft 309 kts 312°
2026-05-04 13:13 36.04817 14.19565 10867 ft 331 kts 324°
2026-05-04 13:13 36.06726 14.17902 11390 ft 339 kts 324°
2026-05-04 13:14 36.08661 14.16203 12080 ft 342 kts 324°
2026-05-04 13:14 36.10602 14.14486 12792 ft 344 kts 324°
2026-05-04 13:14 36.12549 14.12755 13479 ft 345 kts 324°
2026-05-04 13:14 36.14504 14.11015 14135 ft 347 kts 324°
2026-05-04 13:15 36.16474 14.09263 14786 ft 349 kts 323°
2026-05-04 13:15 36.18454 14.07502 15413 ft 352 kts 323°
2026-05-04 13:15 36.20450 14.05730 16023 ft 354 kts 323°
2026-05-04 13:15 36.22455 14.03953 16624 ft 355 kts 323°
2026-05-04 13:16 36.24475 14.02163 17196 ft 358 kts 323°
2026-05-04 13:16 36.26503 14.00363 17765 ft 360 kts 323°
2026-05-04 13:16 36.28539 13.98549 18307 ft 362 kts 322°
2026-05-04 13:16 36.30588 13.96720 18842 ft 364 kts 322°
2026-05-04 13:17 36.32642 13.94885 19379 ft 365 kts 323°
2026-05-04 13:17 36.34711 13.93039 19904 ft 367 kts 323°
2026-05-04 13:17 36.36785 13.91188 20400 ft 368 kts 323°
2026-05-04 13:17 36.38867 13.89325 20889 ft 370 kts 323°
2026-05-04 13:18 36.40958 13.87453 21370 ft 371 kts 323°
2026-05-04 13:18 36.43060 13.85572 21828 ft 373 kts 323°
2026-05-04 13:18 36.45171 13.83682 22287 ft 374 kts 323°
2026-05-04 13:18 36.47290 13.81789 22717 ft 376 kts 323°
2026-05-04 13:19 36.49420 13.79883 23137 ft 378 kts 323°
2026-05-04 13:19 36.51563 13.77961 23560 ft 380 kts 323°
2026-05-04 13:19 36.53709 13.76034 23984 ft 381 kts 323°
2026-05-04 13:19 36.55837 13.74126 24374 ft 383 kts 323°
2026-05-04 13:20 36.58001 13.72185 24765 ft 384 kts 323°
2026-05-04 13:20 36.60171 13.70236 25139 ft 385 kts 323°
2026-05-04 13:20 36.62348 13.68279 25511 ft 387 kts 323°
2026-05-04 13:20 36.64530 13.66316 25867 ft 388 kts 323°
2026-05-04 13:21 36.66723 13.64340 26226 ft 389 kts 323°
2026-05-04 13:21 36.68920 13.62357 26565 ft 391 kts 323°
2026-05-04 13:21 36.71126 13.60367 26908 ft 392 kts 323°
2026-05-04 13:21 36.73334 13.58377 27253 ft 393 kts 323°
2026-05-04 13:22 36.75553 13.56378 27596 ft 394 kts 323°
2026-05-04 13:22 36.77777 13.54375 27917 ft 395 kts 323°
2026-05-04 13:22 36.80006 13.52361 28222 ft 396 kts 322°
2026-05-04 13:22 36.82240 13.50335 28520 ft 397 kts 322°
2026-05-04 13:23 36.84476 13.48303 28814 ft 398 kts 322°
2026-05-04 13:23 36.86721 13.46262 29092 ft 399 kts 322°
2026-05-04 13:23 36.88971 13.44217 29371 ft 400 kts 322°
2026-05-04 13:23 36.91223 13.42173 29635 ft 401 kts 322°
2026-05-04 13:24 36.93483 13.40118 29898 ft 402 kts 322°
2026-05-04 13:24 36.95748 13.38060 30150 ft 403 kts 322°
2026-05-04 13:24 36.98021 13.35995 30388 ft 404 kts 322°
2026-05-04 13:25 37.02573 13.31853 30971 ft 404 kts 322°
2026-05-04 13:25 37.04840 13.29788 31295 ft 402 kts 322°
2026-05-04 13:25 37.07095 13.27730 31627 ft 401 kts 322°
2026-05-04 13:25 37.09349 13.25670 31948 ft 400 kts 322°
2026-05-04 13:26 37.11591 13.23617 32263 ft 398 kts 321°
2026-05-04 13:26 37.13824 13.21569 32561 ft 398 kts 321°
2026-05-04 13:26 37.16054 13.19522 32858 ft 397 kts 321°
2026-05-04 13:26 37.18277 13.17486 33160 ft 395 kts 321°
2026-05-04 13:27 37.20494 13.15456 33463 ft 394 kts 321°
2026-05-04 13:27 37.22700 13.13435 33742 ft 392 kts 321°
2026-05-04 13:27 37.24903 13.11415 34020 ft 392 kts 321°
2026-05-04 13:27 37.27100 13.09401 34316 ft 390 kts 321°
2026-05-04 13:28 37.29287 13.07395 34577 ft 389 kts 321°
2026-05-04 13:28 37.31471 13.05387 34808 ft 389 kts 321°
2026-05-04 13:28 37.33697 13.03455 35036 ft 391 kts 326°
2026-05-04 13:28 37.36162 13.01971 35242 ft 396 kts 335°
2026-05-04 13:29 37.38807 13.00946 35420 ft 399 kts 338°
2026-05-04 13:29 37.41435 12.99981 35609 ft 399 kts 338°
2026-05-04 13:29 37.44099 12.98999 35803 ft 399 kts 338°
2026-05-04 13:29 37.46758 12.98011 35985 ft 399 kts 338°
2026-05-04 13:30 37.49415 12.97018 36115 ft 399 kts 338°
2026-05-04 13:30 37.52079 12.96018 36157 ft 399 kts 338°
2026-05-04 13:30 37.57393 12.94030 36155 ft 398 kts 338°
2026-05-04 13:31 37.62707 12.92048 36156 ft 398 kts 338°
2026-05-04 13:31 37.68019 12.90054 36155 ft 398 kts 338°
2026-05-04 13:32 37.73331 12.88063 36156 ft 399 kts 338°
2026-05-04 13:32 37.78654 12.86071 36158 ft 399 kts 338°
2026-05-04 13:33 37.83968 12.84075 36156 ft 399 kts 338°
2026-05-04 13:33 37.89119 12.82134 36155 ft 399 kts 338°
2026-05-04 13:34 37.94437 12.80122 36156 ft 399 kts 338°
2026-05-04 13:34 37.99761 12.78111 36157 ft 399 kts 338°
2026-05-04 13:35 38.07749 12.75088 36159 ft 400 kts 338°
2026-05-04 13:36 38.13074 12.73070 36159 ft 400 kts 338°
2026-05-04 13:36 38.18402 12.71048 36158 ft 399 kts 338°
2026-05-04 13:37 38.23735 12.69021 36154 ft 400 kts 338°
2026-05-04 13:37 38.29024 12.67007 36151 ft 400 kts 338°
2026-05-04 13:38 38.34348 12.64970 36150 ft 400 kts 338°
2026-05-04 13:38 38.39681 12.62923 36148 ft 400 kts 338°
2026-05-04 13:39 38.45014 12.60896 36149 ft 400 kts 338°
2026-05-04 13:39 38.50343 12.58860 36153 ft 399 kts 338°
2026-05-04 13:40 38.55663 12.56816 36154 ft 400 kts 338°
2026-05-04 13:40 38.60998 12.54771 36156 ft 400 kts 338°
2026-05-04 13:41 38.66323 12.52718 36156 ft 400 kts 338°
2026-05-04 13:41 38.71654 12.50658 36159 ft 400 kts 338°
2026-05-04 13:42 38.79642 12.47570 36159 ft 400 kts 338°
2026-05-04 13:42 38.84972 12.45504 36156 ft 400 kts 338°
2026-05-04 13:43 38.90134 12.42984 36153 ft 396 kts 332°
2026-05-04 13:43 38.94338 12.40681 36150 ft 396 kts 332°
2026-05-04 13:44 38.99404 12.37908 36148 ft 396 kts 332°
2026-05-04 13:44 39.04463 12.35123 36153 ft 396 kts 332°
2026-05-04 13:45 39.09523 12.32328 36158 ft 396 kts 332°
2026-05-04 13:45 39.14585 12.29537 36159 ft 396 kts 332°
2026-05-04 13:46 39.19646 12.26747 36162 ft 396 kts 332°
2026-05-04 13:46 39.24716 12.23944 36164 ft 396 kts 332°
2026-05-04 13:47 39.29782 12.21132 36167 ft 396 kts 332°
2026-05-04 13:47 39.34846 12.18321 36167 ft 396 kts 332°
2026-05-04 13:48 39.39899 12.15507 36170 ft 395 kts 332°
2026-05-04 13:48 39.44950 12.12696 36167 ft 395 kts 332°
2026-05-04 13:49 39.49993 12.09882 36166 ft 395 kts 332°
2026-05-04 13:49 39.55040 12.07065 36167 ft 395 kts 332°
2026-05-04 13:50 39.60053 12.04261 36164 ft 395 kts 331°
2026-05-04 13:50 39.65100 12.01437 36156 ft 395 kts 332°
2026-05-04 13:51 39.70137 11.98614 36148 ft 394 kts 331°
2026-05-04 13:51 39.75170 11.95773 36137 ft 394 kts 331°
2026-05-04 13:52 39.82723 11.91506 36127 ft 395 kts 331°
2026-05-04 13:53 39.87766 11.88667 36128 ft 395 kts 332°
2026-05-04 13:53 39.92894 11.86037 36128 ft 396 kts 334°
2026-05-04 13:54 40.00657 11.82274 36123 ft 396 kts 334°
2026-05-04 13:55 40.08379 11.78412 36118 ft 396 kts 333°
2026-05-04 13:55 40.16089 11.74522 36119 ft 396 kts 333°
2026-05-04 13:56 40.21246 11.71930 36112 ft 397 kts 333°
2026-05-04 13:57 40.28969 11.68025 36117 ft 397 kts 333°
2026-05-04 13:58 40.39261 11.62810 36114 ft 398 kts 333°
2026-05-04 13:58 40.47021 11.58874 36115 ft 399 kts 333°
2026-05-04 13:59 40.52205 11.56239 36115 ft 399 kts 333°
2026-05-04 14:00 40.59991 11.52267 36113 ft 401 kts 333°
2026-05-04 14:00 40.67796 11.48268 36115 ft 402 kts 333°
2026-05-04 14:01 40.73012 11.45602 36115 ft 403 kts 333°
2026-05-04 14:02 40.80852 11.41580 36118 ft 403 kts 333°
2026-05-04 14:02 40.85942 11.38565 36112 ft 399 kts 327°
2026-05-04 14:03 40.90820 11.35039 36114 ft 400 kts 326°
2026-05-04 14:03 40.95703 11.31506 36121 ft 400 kts 326°
2026-05-04 14:04 41.03036 11.26197 36117 ft 401 kts 326°
2026-05-04 14:04 41.07933 11.22645 36112 ft 401 kts 326°
2026-05-04 14:05 41.15286 11.17302 36126 ft 402 kts 326°
2026-05-04 14:06 41.20185 11.13726 36129 ft 402 kts 326°
2026-05-04 14:06 41.25060 11.10170 36125 ft 403 kts 326°
2026-05-04 14:07 41.29974 11.06577 36125 ft 403 kts 326°
2026-05-04 14:07 41.34881 11.02966 36132 ft 403 kts 326°
2026-05-04 14:08 41.39787 10.99358 36126 ft 403 kts 326°
2026-05-04 14:08 41.44703 10.95754 36118 ft 403 kts 326°
2026-05-04 14:09 41.52078 10.90334 36116 ft 404 kts 326°
2026-05-04 14:10 41.59461 10.84881 36108 ft 404 kts 326°
2026-05-04 14:10 41.64384 10.81229 36107 ft 405 kts 326°
2026-05-04 14:11 41.69310 10.77571 36110 ft 405 kts 326°
2026-05-04 14:11 41.76702 10.72073 36108 ft 405 kts 326°
2026-05-04 14:12 41.81636 10.68394 36107 ft 406 kts 325°
2026-05-04 14:13 41.89041 10.62873 36114 ft 406 kts 325°
2026-05-04 14:13 41.93980 10.59180 36116 ft 406 kts 325°
2026-05-04 14:14 41.98879 10.55494 36118 ft 406 kts 325°
2026-05-04 14:14 42.06301 10.49923 36111 ft 408 kts 325°
2026-05-04 14:15 42.16244 10.42434 36109 ft 410 kts 325°
2026-05-04 14:16 42.23703 10.36793 36125 ft 410 kts 325°
2026-05-04 14:17 42.31160 10.31133 36127 ft 410 kts 325°
2026-05-04 14:18 42.38608 10.25464 36124 ft 409 kts 325°
2026-05-04 14:19 42.48431 10.17972 36124 ft 409 kts 325°
2026-05-04 14:19 42.53398 10.14179 36122 ft 410 kts 325°
2026-05-04 14:20 42.58368 10.10373 36118 ft 410 kts 325°
2026-05-04 14:20 42.63342 10.06552 36123 ft 411 kts 325°
2026-05-04 14:21 42.70814 10.00796 36119 ft 412 kts 325°
2026-05-04 14:21 42.75797 9.96950 36113 ft 412 kts 325°
2026-05-04 14:22 42.80796 9.93093 36106 ft 413 kts 325°
2026-05-04 14:22 42.85798 9.89226 36104 ft 414 kts 324°
2026-05-04 14:23 42.90212 9.84410 36101 ft 403 kts 307°
2026-05-04 14:23 42.91931 9.81413 36099 ft 401 kts 302°
2026-05-04 14:24 42.95152 9.75186 36100 ft 400 kts 296°
2026-05-04 14:24 42.97363 9.68320 36096 ft 398 kts 289°
2026-05-04 14:25 42.99421 9.61287 36096 ft 399 kts 289°
2026-05-04 14:25 43.02514 9.50723 36095 ft 400 kts 289°
2026-05-04 14:26 43.04573 9.43664 36095 ft 400 kts 289°
2026-05-04 14:26 43.06625 9.36595 36092 ft 400 kts 289°
2026-05-04 14:27 43.08675 9.29523 36084 ft 400 kts 289°
2026-05-04 14:27 43.10717 9.22434 36082 ft 401 kts 289°
2026-05-04 14:28 43.12416 9.16536 36088 ft 401 kts 289°
2026-05-04 14:28 43.14460 9.09443 36089 ft 400 kts 289°
2026-05-04 14:29 43.18525 8.95255 36086 ft 400 kts 288°
2026-05-04 14:30 43.20548 8.88150 36085 ft 400 kts 288°
2026-05-04 14:31 43.23578 8.77470 36086 ft 401 kts 288°
2026-05-04 14:32 43.27603 8.63210 36091 ft 400 kts 288°
2026-05-04 14:32 43.29599 8.56131 36090 ft 400 kts 288°
2026-05-04 14:33 43.31599 8.48999 36092 ft 400 kts 288°
2026-05-04 14:33 43.33596 8.41855 36094 ft 401 kts 288°
2026-05-04 14:34 43.35587 8.34706 36096 ft 401 kts 288°
2026-05-04 14:34 43.37578 8.27553 36094 ft 401 kts 288°
2026-05-04 14:35 43.39570 8.20378 36097 ft 402 kts 288°
2026-05-04 14:35 43.41550 8.13190 36102 ft 402 kts 288°
2026-05-04 14:36 43.43534 8.05980 36099 ft 403 kts 288°
2026-05-04 14:36 43.45521 7.98767 36093 ft 403 kts 288°
2026-05-04 14:37 43.47502 7.91552 36090 ft 403 kts 287°
2026-05-04 14:37 43.49472 7.84332 36084 ft 403 kts 287°
2026-05-04 14:38 43.51445 7.77094 36079 ft 404 kts 287°
2026-05-04 14:38 43.53417 7.69845 36079 ft 404 kts 287°
2026-05-04 14:39 43.55384 7.62592 36075 ft 404 kts 287°
2026-05-04 14:39 43.57344 7.55336 36069 ft 404 kts 287°
2026-05-04 14:40 43.60271 7.44436 36064 ft 404 kts 287°
2026-05-04 14:40 43.62992 7.37610 36065 ft 413 kts 305°
2026-05-04 14:41 43.67404 7.32386 36055 ft 425 kts 321°
2026-05-04 14:42 43.77294 7.23346 36052 ft 427 kts 321°
2026-05-04 14:42 43.82237 7.18805 36051 ft 426 kts 320°
2026-05-04 14:43 43.87137 7.14282 36058 ft 427 kts 320°
2026-05-04 14:43 43.92094 7.09707 36052 ft 427 kts 320°
2026-05-04 14:44 43.97081 7.05101 36058 ft 428 kts 320°
2026-05-04 14:44 44.02032 7.00514 36051 ft 428 kts 320°
2026-05-04 14:45 44.07000 6.95896 36035 ft 430 kts 321°
2026-05-04 14:45 44.11984 6.91248 36046 ft 432 kts 321°
2026-05-04 14:46 44.16956 6.86620 36045 ft 433 kts 321°
2026-05-04 14:46 44.21967 6.81944 36053 ft 433 kts 321°
2026-05-04 14:47 44.26979 6.77241 36061 ft 434 kts 321°
2026-05-04 14:47 44.31985 6.72530 36058 ft 434 kts 320°
2026-05-04 14:48 44.37004 6.67807 36055 ft 435 kts 320°
2026-05-04 14:48 44.42025 6.63066 36061 ft 436 kts 320°
2026-05-04 14:49 44.47056 6.58323 36061 ft 436 kts 320°
2026-05-04 14:49 44.52057 6.53589 36068 ft 437 kts 320°
2026-05-04 14:50 44.57124 6.48781 36073 ft 437 kts 320°
2026-05-04 14:50 44.62124 6.44028 36075 ft 437 kts 320°
2026-05-04 14:51 44.67162 6.39234 36079 ft 438 kts 320°
2026-05-04 14:51 44.72202 6.34433 36079 ft 438 kts 320°
2026-05-04 14:52 44.77246 6.29621 36083 ft 438 kts 320°
2026-05-04 14:52 44.82279 6.24791 36073 ft 437 kts 320°
2026-05-04 14:53 44.87306 6.19951 36069 ft 438 kts 320°
2026-05-04 14:53 44.92343 6.15101 36060 ft 439 kts 320°
2026-05-04 14:54 44.97387 6.10236 36061 ft 440 kts 320°
2026-05-04 14:54 45.02447 6.05349 36057 ft 441 kts 320°
2026-05-04 14:55 45.07508 6.00446 36051 ft 441 kts 320°
2026-05-04 14:55 45.12578 5.95527 36035 ft 442 kts 320°
2026-05-04 14:56 45.17656 5.90579 36033 ft 444 kts 320°
2026-05-04 14:56 45.22761 5.85601 36033 ft 445 kts 320°
2026-05-04 14:57 45.27869 5.80613 36034 ft 446 kts 320°
2026-05-04 14:57 45.32989 5.75601 36032 ft 447 kts 320°
2026-05-04 14:58 45.38107 5.70573 36035 ft 448 kts 320°
2026-05-04 14:58 45.43237 5.65520 36034 ft 448 kts 320°
2026-05-04 14:59 45.48376 5.60461 36036 ft 449 kts 320°
2026-05-04 15:00 45.56074 5.52836 36038 ft 449 kts 320°
2026-05-04 15:00 45.61331 5.47962 36050 ft 452 kts 323°
2026-05-04 15:01 45.68711 5.41539 36045 ft 453 kts 323°
2026-05-04 15:01 45.74066 5.36795 36045 ft 453 kts 322°
2026-05-04 15:02 45.79400 5.31994 36036 ft 453 kts 322°
2026-05-04 15:02 45.84729 5.27171 36036 ft 453 kts 322°
2026-05-04 15:03 45.90024 5.22382 36037 ft 453 kts 322°
2026-05-04 15:03 45.95399 5.17525 36035 ft 453 kts 322°
2026-05-04 15:04 46.00706 5.12722 36038 ft 454 kts 322°
2026-05-04 15:04 46.06184 5.08165 36028 ft 460 kts 332°
2026-05-04 15:05 46.12049 5.04451 36021 ft 461 kts 332°
2026-05-04 15:05 46.17927 5.00709 36017 ft 462 kts 331°
2026-05-04 15:06 46.23807 4.96943 36014 ft 463 kts 331°
2026-05-04 15:07 46.32656 4.91283 36020 ft 464 kts 331°
2026-05-04 15:07 46.38556 4.87500 36018 ft 462 kts 331°
2026-05-04 15:08 46.44426 4.83718 36012 ft 461 kts 331°
2026-05-04 15:08 46.50288 4.79935 36004 ft 461 kts 331°
2026-05-04 15:09 46.56148 4.76148 35997 ft 461 kts 331°
2026-05-04 15:09 46.61966 4.72370 35990 ft 461 kts 331°
2026-05-04 15:10 46.70754 4.66655 35981 ft 462 kts 331°
2026-05-04 15:11 46.79558 4.60901 35984 ft 462 kts 330°
2026-05-04 15:11 46.85427 4.57067 35980 ft 462 kts 331°
2026-05-04 15:12 46.90315 4.53897 35975 ft 462 kts 331°
2026-05-04 15:12 46.96202 4.50073 35969 ft 463 kts 331°
2026-05-04 15:13 47.02092 4.46237 35973 ft 463 kts 331°
2026-05-04 15:13 47.07984 4.42381 35983 ft 464 kts 331°
2026-05-04 15:14 47.13883 4.38504 35980 ft 465 kts 331°
2026-05-04 15:14 47.19785 4.34616 35980 ft 465 kts 331°
2026-05-04 15:15 47.25695 4.30717 35977 ft 466 kts 331°
2026-05-04 15:15 47.31624 4.26800 35972 ft 466 kts 331°
2026-05-04 15:16 47.40514 4.20899 35974 ft 468 kts 331°
2026-05-04 15:17 47.49434 4.14964 35971 ft 469 kts 331°
2026-05-04 15:17 47.58341 4.09026 35968 ft 470 kts 331°
2026-05-04 15:18 47.64347 4.05011 35966 ft 471 kts 331°
2026-05-04 15:19 47.73270 3.99024 35968 ft 472 kts 331°
2026-05-04 15:19 47.82243 3.92978 35959 ft 472 kts 331°
2026-05-04 15:20 47.88230 3.88931 35959 ft 473 kts 331°
2026-05-04 15:20 47.94224 3.84872 35961 ft 473 kts 331°
2026-05-04 15:21 48.00222 3.80804 35963 ft 474 kts 331°
2026-05-04 15:22 48.09214 3.74686 35965 ft 473 kts 331°
2026-05-04 15:22 48.17536 3.67138 35970 ft 460 kts 311°
2026-05-04 15:23 48.21892 3.60202 35967 ft 456 kts 307°
2026-05-04 15:23 48.26205 3.53198 35969 ft 457 kts 307°
2026-05-04 15:24 48.34803 3.39186 35968 ft 456 kts 307°
2026-05-04 15:25 48.39145 3.32293 35964 ft 460 kts 314°
2026-05-04 15:26 48.47570 3.25082 35960 ft 471 kts 333°
2026-05-04 15:26 48.56649 3.19315 35961 ft 471 kts 333°
2026-05-04 15:27 48.65708 3.13511 35965 ft 471 kts 333°
2026-05-04 15:28 48.74733 3.07674 35965 ft 471 kts 333°
2026-05-04 15:29 48.83786 3.01817 35968 ft 470 kts 331°
2026-05-04 15:30 49.03472 2.84774 35970 ft 466 kts 326°
2026-05-04 15:31 49.11584 2.77565 35378 ft 479 kts 324°
2026-05-04 15:32 49.19993 2.68055 32643 ft 515 kts 311°
2026-05-04 15:32 49.23222 2.62510 32866 ft 494 kts 301°